Regional Weather Roundup
Issued by NWS

Home | Current Version | Previous Version | Graphics & Text | Print | Product List | Glossary On
Versions: 1 2 3 4 5 6 7 8 9 10 11 12 13 14 15 16 17 18 19 20 21 22 23 24 25 26 27
000
ASUS45 KBOU 241607
RWRCO

WEATHER ROUNDUP FOR COLORADO
NATIONAL WEATHER SERVICE DENVER/BOULDER CO
1000 AM MDT FRI MAR 24 2017

NOTE: "FAIR" INDICATES FEW OR NO CLOUDS BELOW 12000 FEET WITH NO
SIGNIFICANT WEATHER AND/OR OBSTRUCTIONS TO VISIBILITY.

COZ001>005-013-030-031-241700-
...NORTHWEST COLORADO...

CITY           SKY/WX    TMP DP  RH WIND       PRES   REMARKS
CRAIG          FAIR      45  30  55 N9        30.17R
HAYDEN         FAIR      39  27  60 SW3       30.16R
MEEKER         FAIR      43  31  62 NE14      30.18R
MOUNT WERNER   NOT AVBL
STEAMBOAT SPGS PTSUNNY   40  28  63 SW5       30.16R
WALDEN         NOT AVBL
$$

COZ006>008-011-241700-
...WEST CENTRAL VALLEYS...

CITY           SKY/WX    TMP DP  RH WIND       PRES   REMARKS
GRAND JUNCTION FAIR      50  30  46 N17       30.17R
MONTROSE       FAIR      46  31  55 NW17      30.17R
EAGLE          MOSUNNY   45  27  49 N9G16     30.15R
RIFLE          FAIR      49  30  48 NW15G21   30.14R
DELTA          FAIR      52  28  40 SW10      30.13R
NUCLA          FAIR      46  30  53 NW13      30.17R
$$

COZ017>023-064>068-241700-
...SOUTHWEST COLORADO...

CITY           SKY/WX    TMP DP  RH WIND       PRES   REMARKS
DURANGO        FAIR      42  32  67 E6        30.01R
CORTEZ         FAIR      47  32  56 N13G24    30.11R
PAGOSA SPRINGS CLOUDY    34  34 100 CALM      30.03R FOG
TELLURIDE      CLOUDY    31  27  84 W16       30.14R WCI  20
WOLF CREEK PAS FAIR      23  18  80 NW12G21   30.11R WCI  12
$$

COZ009-010-012-014-032>034-037-058>063-241700-
...CENTRAL COLORADO...

CITY           SKY/WX    TMP DP  RH WIND       PRES   REMARKS
ASPEN          FLURRIES  34  29  82 NW7       30.14R WCI  28
BUENA VISTA    FAIR      43  19  38 NW28G35   30.02R
COPPER MTN     CLOUDY    25  19  80 MISG      30.13R
BERTHOUD PASS  CLOUDY    16   5  62 MISG      30.13R
COTTONWOOD PAS FAIR      41  18  38 CALM      30.06R
GUNNISON       FAIR      41  24  51 VRB3      30.08R
KREMMLING      CLOUDY    46  30  53 N8        30.14S
LEADVILLE      PTSUNNY   27  19  72 N10       30.10R WCI  17
MONARCH PASS   FOG       23  21  93 W14       30.19R VSB 1/4 WCI  11
SALIDA         FAIR      43  27  54 N9G17     30.09R
SUNLIGHT       CLOUDY   N/A N/A N/A MISG      30.21R
WILKERSON PASS   N/A     23  21  93 NE13G26   30.08R WCI  11
$$

COZ069>075-241700-
...SAN LUIS VALLEY/SANGRE DE CRISTO MOUNTAINS...

CITY           SKY/WX    TMP DP  RH WIND       PRES   REMARKS
ALAMOSA        FAIR      42  29  59 NW28G36   29.93R
LA VETA PASS   NOT AVBL
SAGUACHE       CLOUDY    39  28  65 N22G28    30.00R
$$

COZ035-036-038>040-241700-
...NORTHERN COLORADO FRONT RANGE...

CITY           SKY/WX    TMP DP  RH WIND       PRES   REMARKS
DENVER INTL AP CLOUDY    39  32  76 N29G37    30.07R
DMNS CITY PARK   N/A     43  30  59 N16G31    30.10R
AURORA         CLOUDY    38  33  84 N24G33    30.08R
FRONT RANGE AP CLOUDY    39  34  81 NW22G28   30.08R
ERIE MUNI ARPT FAIR      46  32  57 N18G28    30.09R
BOULDER MUN AP CLOUDY    45  32  61 N15G21    30.08R
CENTENNIAL     CLOUDY    37  32  82 N24G31    30.08R
BROOMFIELD     NOT AVBL
FORT COLLINS   FAIR      48  30  49 N26G33    30.08F
LONGMONT       FAIR      49  32  53 N15G21    30.10S
$$

COZ041-046-047-076>085-087-088-241700-
...PIKES PEAK/PALMER DIVIDE AND SOUTHERN FOOTHILLS...

CITY           SKY/WX    TMP DP  RH WIND       PRES   REMARKS
COLO. SPRINGS  FLURRIES  36  34  92 N31G43    29.97R
A. F. ACADEMY  LGT RAIN  34  31  90 N33G43    29.97R FOG     WCI  19
SCHRIEVER AFB  LGT SNOW  34  31  90 N35G53    29.93R WCI  19
ELLICOTT       NOT AVBL
FALCON         CLOUDY    33  31  92 N37G52    29.96R WCI  18
FORT CARSON    CLOUDY    39  32  75 N40G58    29.93R
LIMON          NOT AVBL
MONUMENT HILL  CLOUDY    32  30  93 N29G36    30.06R WCI  18
TRINIDAD       SNOW      33  31  92 N29G39    29.93R VSB 1/2 WCI  19
$$

COZ042>045-048>051-090-091-241700-
...NORTHEAST COLORADO...

CITY           SKY/WX    TMP DP  RH WIND       PRES   REMARKS
GREELEY ARPT   FAIR      46  35  65 N29       30.08R
AKRON          CLOUDY    38  35  89 N35G49    29.98R
BURLINGTON     RAIN      39  38  96 N18G39    29.87R FOG
WRAY           NOT AVBL
STERLING       CLOUDY    41  36  81 N24G33    30.01R
HOLYOKE        CLOUDY    43  37  81 N32G41    29.95R
FORT MORGAN    CLOUDY    41  35  77 N24G35    30.05R
$$

COZ086-089-092>099-241700-
...SOUTHEAST COLORADO...

CITY           SKY/WX    TMP DP  RH WIND       PRES   REMARKS
PUEBLO         CLOUDY    44  33  65 N35G49    29.93R
LA JUNTA       LGT RAIN  39  35  86 N41G52    29.89R
LAMAR          CLOUDY    44  35  70 N32G47    29.79R
SPRINGFIELD      N/A     48  32  53 N39G49    29.68R
$$




USA.gov is the U.S. government's official web portal to all federal, state and local government web resources and services.